Location: Liscomb Game Sanctuary
(45.1633°N, 62.5575°W)
Time: 23:43:23
(UTC-03:00)

Daily predictions for brighter satellites

Satellite Brightness Start Highest point End
(mag) Time Altitude Azimuth Time Altitude Azimuth Time Altitude Azimuth
SL-24 R/B - RUBIN 2 4.3 21:18:25 10° SSW 21:23:53 85° SE 21:30:07 10° NE
Cosmos 2237 Rocket 3.2 21:19:23 10° SW 21:24:53 53° WNW 21:30:26 10° NNE
Cosmos 1626 Rocket 4.3 21:22:39 10° SSE 21:26:42 36° E 21:30:45 10° NNE
ATLAS CENTAUR R/B 2.4 21:22:05 10° SW 21:27:02 65° NW 21:32:05 10° NNE
BREEZE-M DEB (TANK) 2.8 21:24:15 10° WNW 21:27:10 38° SW 21:29:10 10° SSE
Abrixas rocket 2.6 21:23:52 10° WNW 21:27:14 59° SSW 21:30:38 10° SE
Atlas Centaur 2 4.2 21:23:43 10° SSW 21:28:56 19° SSE 21:34:28 10° ESE
Cosmos 2278 Rocket 3.8 21:25:13 10° NW 21:30:13 32° WSW 21:35:11 10° SSW
Meteor 1-15 Rocket 4.2 21:27:03 10° N 21:32:40 80° E 21:38:18 10° SSE
Cosmos 2228 3.1 21:34:49 10° N 21:39:15 88° E 21:43:39 10° S
COSMOS 2455 3.7 21:35:23 10° SSE 21:40:21 28° ESE 21:45:21 10° NE
Cosmos 494 Rocket 4.0 21:35:36 10° SSW 21:40:43 89° ESE 21:45:53 10° NNE
H-2A R/B 3.7 21:39:19 10° ESE 21:42:38 18° ENE 21:46:00 10° NNE
Cosmos 2369 Rocket 3.4 21:39:43 10° N 21:44:41 30° NE 21:49:32 10° ESE
Nimbus 7 Rocket 4.4 21:40:24 10° NNE 21:46:25 80° ESE 21:52:20 10° SSW
Cosmos 1939 Rocket 3.3 21:43:49 10° S 21:47:57 65° W 21:52:05 10° NNW
Aureole 2 Rocket 2.5 21:44:13 10° SSW 21:48:10 74° ESE 21:51:46 10° NNE
SPOT 1/Viking Rocket 3.9 21:46:05 12° SE 21:50:46 51° ENE 21:55:46 10° N
SL-16 R/B 2.6 21:46:10 10° SSW 21:51:48 70° WNW 21:57:29 10° NNE
SPOT 5 2.6 21:48:04 10° SSE 21:52:31 87° WSW 21:56:52 10° NNW
ARGOS 3.7 21:47:52 12° SE 21:52:32 44° ENE 21:57:40 10° N
Cosmos 1666 3.2 21:51:24 10° NNW 21:55:15 60° W 21:59:06 10° S
Tsikada Rocket 4.1 21:51:39 10° S 21:58:00 70° E 22:04:22 10° NNE
Lacrosse 5 rocket 2.4 21:57:46 10° WSW 22:01:33 47° NNW 22:05:34 10° NE
CZ-4 SHROUD 4.2 22:01:53 10° S 22:04:55 44° W 22:08:00 10° NNW
Lacrosse 5 4.0 22:01:45 10° W 22:06:09 29° NNW 22:10:34 10° NE
MetOp-B 4.2 22:07:39 11° S 22:12:47 78° WSW 22:18:10 10° NNW
SeaSat 1 3.2 22:10:21 11° S 22:14:56 46° WSW 22:19:42 10° NW
SL-8 R/B 4.2 22:10:38 10° W 22:15:26 62° N 22:20:15 10° ENE
UNK 4.2 22:11:13 10° NNE 22:16:36 89° WNW 22:22:14 10° SSW
CZ-4B R/B 3.4 22:12:26 10° NNE 22:17:30 79° ESE 22:22:40 10° SSW
Lacrosse 4 Rocket 3.2 22:18:45 14° E 22:18:45 14° E 22:20:35 10° ENE
SL-08 RB Rocket 3.9 22:17:07 20° SSE 22:20:12 60° ENE 22:24:41 10° N
Terra 2.8 22:17:27 18° ESE 22:20:17 33° ENE 22:24:32 10° N
Cosmos 1603 3.6 22:14:57 10° SSW 22:20:33 82° ESE 22:26:12 10° NNE
Cosmos 1238 4.1 22:21:42 16° S 22:24:07 89° WSW 22:27:08 10° N
Cosmos 1515 3.6 22:23:52 18° S 22:26:37 70° E 22:30:28 10° NNE
Cosmos 1346 Rocket 3.6 22:27:33 26° SE 22:28:55 33° E 22:32:28 10° NNE
Cosmos 1461 4.0 22:28:10 10° NW 22:32:08 36° WSW 22:34:38 18° S
Cosmos 1825 Rocket 3.6 22:33:20 21° S 22:36:12 66° E 22:40:37 10° NNE
ATLAS 3B R/B 3.3 22:30:11 10° S 22:37:15 41° ESE 22:44:12 10° NE
Cosmos 1634 Rocket 3.9 22:32:40 10° N 22:38:54 82° E 22:43:13 21° SSE
Cosmos 1812 Rocket 4.5 22:34:58 10° NNW 22:39:10 45° W 22:42:44 14° SSW
Cosmos 1943 3.3 22:41:51 16° S 22:46:14 57° ESE 22:51:48 10° NNE
USA 234 3.8 22:43:14 21° SSE 22:47:26 47° SW 22:53:45 10° WNW
BREEZE-M DEB (TANK) 1.5 22:44:59 10° WSW 22:47:55 83° SSE 22:48:16 58° ENE
Cosmos 1842 4.4 22:47:40 26° ESE 22:48:15 28° E 22:51:37 10° NNE
Cosmos 407 Rocket 3.9 22:47:15 27° SSE 22:49:41 44° ESE 22:54:39 10° NNE
YAOGAN 6 4.2 22:50:25 15° SSW 22:52:54 31° W 22:56:16 10° NNW
USA 81 4.3 22:48:51 10° N 22:54:07 69° W 22:57:42 21° S
Cosmos 1943 Rocket 2.9 22:52:31 10° NNW 22:57:45 41° ENE 23:00:44 23° ESE
Cosmos 2279 Rocket 4.0 22:58:27 10° N 23:04:44 77° E 23:08:07 29° SSE
Cosmos 1766 3.2 23:01:33 10° N 23:05:34 76° E 23:06:44 44° SSE
Atlas Centaur 2 3.8 23:10:47 10° SW 23:17:30 28° S 23:18:15 28° SSE
CZ-4B R/B 4.2 23:16:53 10° ENE 23:17:39 11° ENE 23:18:24 10° NE
Cosmos 2180 Rocket 4.5 23:14:00 10° N 23:20:17 84° E 23:23:24 32° SSE
Cosmos 1953 Rocket 4.1 23:18:28 24° SSW 23:20:55 57° WNW 23:25:18 10° N
H-2A R/B 2.2 23:19:21 32° S 23:21:32 64° WSW 23:26:33 10° NNW
SAR-Lupe-2 4.3 23:21:49 36° SW 23:22:41 44° W 23:26:08 10° NNW
COSMOS 2455 3.5 23:20:03 10° SW 23:25:56 56° NW 23:31:52 10° NNE
ISS -1.3 23:30:50 19° ENE 23:30:50 19° ENE 23:31:53 10° ENE
Cosmos 2369 Rocket 2.7 23:23:29 10° NW 23:28:57 49° WSW 23:31:20 30° SSW
Cosmos 1570 Rocket 4.4 23:29:58 10° NNW 23:35:15 55° ENE 23:37:09 36° ESE
Cosmos 1470 4.0 23:32:01 10° NNE 23:35:25 28° ENE 23:35:43 27° E
Spot 4 4.2 23:35:17 37° SSW 23:36:56 58° W 23:41:40 10° NNW
DMSP B5D2-2 4.2 23:31:40 10° N 23:36:57 73° WNW 23:39:47 28° SSW
Cosmos 1953 2.1 23:33:14 10° N 23:37:14 89° ENE 23:37:47 66° S
IGS 5A 4.2 23:36:44 35° SW 23:37:53 45° W 23:41:53 10° NNW
Cosmos 2084 4.0 23:35:13 10° NNW 23:39:14 50° NE 23:40:23 38° E
Cosmos 2221 4.2 23:37:25 10° NNE 23:40:46 21° ENE 23:41:33 20° E
Lacrosse 5 rocket 4.3 23:38:48 10° WNW 23:41:42 18° NNW 23:44:43 10° NNE
Cosmos 1805 3.1 23:37:53 10° N 23:41:52 82° E 23:42:15 70° SSE
H-2A R/B 4.1 23:41:08 10° NE 23:43:19 19° E 23:43:19 19° E
Cosmos-2242 3.2 23:39:41 10° NNW 23:44:04 65° W 23:45:05 48° SSW
Lacrosse 5 4.4 23:46:38 10° NW 23:50:30 21° N 23:54:21 10° NE
COSMOS 2406 3.5 23:50:41 43° SE 23:51:51 50° ESE 23:57:23 10° NE
